DW8234 Weather Reports


Display with metric or nautical units.
time (UTC)temp
F
wind
direction
speed
MPH
gust
MPH
rain 1hr
in
rain 24hr
in
rain mn
in
humidity
%
barometer
mb
20180718061359 78 133 1.0 2.0 0.00 0.14 0.00 92 1015.5
20180718060859 78 133 0.0 1.0 0.00 0.14 0.00 92 1015.5
20180718060358 78 133 0.0 1.0 0.00 0.14 0.00 91 1015.7
20180718055859 78 133 0.0 3.0 0.00 0.14 0.00 91 1015.6
20180718055359 78 133 0.0 3.0 0.00 0.14 0.00 91 1015.7
20180718054859 78 128 1.0 3.0 0.00 0.14 0.00 91 1015.7
20180718054358 78 204 1.0 3.0 0.00 0.14 0.00 90 1015.7
20180718052358 78 158 1.0 3.0 0.00 0.14 0.00 90 1015.7
20180718051858 78 134 0.0 3.0 0.00 0.14 0.00 90 1015.7
20180718051358 78 135 1.0 3.0 0.00 0.14 0.00 90 1015.6
20180718050858 78 150 0.0 2.0 0.00 0.14 0.00 90 1015.7
20180718050358 79 123 0.0 2.0 0.00 0.14 0.00 89 1015.7
20180718045358 79 113 1.0 4.0 0.00 0.14 0.00 89 1015.8
20180718043358 79 238 1.0 4.0 0.00 0.14 0.00 90 1015.9
20180718042358 79 226 0.0 4.0 0.00 0.14 0.00 90 1015.8
20180718041857 79 98 0.0 4.0 0.00 0.14 0.00 90 1015.9
20180718041357 79 236 0.0 4.0 0.00 0.14 0.00 91 1015.9
20180718040857 78 205 1.0 4.0 0.00 0.14 0.00 91 1015.9
20180718035857 78 183 0.0 4.0 0.00 0.14 0.14 91 1016.0
20180718034357 79 188 0.0 4.0 0.00 0.14 0.14 89 1016.0
20180718033857 79 192 1.0 4.0 0.00 0.14 0.14 89 1016.1
20180718033357 79 140 0.0 4.0 0.00 0.14 0.14 90 1016.1
20180718032857 79 235 2.0 4.0 0.00 0.14 0.14 89 1016.1
20180718032357 79 62 0.0 4.0 0.00 0.14 0.14 89 1016.2
20180718031357 79 147 1.0 3.0 0.00 0.14 0.14 89 1016.1
20180718025857 79 129 0.0 4.0 0.00 0.14 0.14 89 1016.1
20180718025357 79 246 1.0 4.0 0.00 0.14 0.14 89 1016.0
20180718024857 79 214 0.0 4.0 0.00 0.14 0.14 90 1016.0
20180718023857 78 99 0.0 3.0 0.00 0.14 0.14 90 1015.8
20180718023356 78 210 0.0 3.0 0.00 0.14 0.14 90 1015.8
20180718022856 78 52 0.0 3.0 0.00 0.14 0.14 91 1015.7
20180718021856 78 134 1.0 3.0 0.00 0.14 0.14 91 1015.7
20180718020856 78 141 0.0 3.0 0.00 0.14 0.14 91 1015.7
20180718020356 78 273 0.0 3.0 0.00 0.14 0.14 90 1015.6
20180718014856 78 137 2.0 5.0 0.00 0.14 0.14 90 1015.5
20180718014356 78 158 0.0 5.0 0.00 0.14 0.14 90 1015.7
20180718013856 78 42 0.0 5.0 0.00 0.14 0.14 91 1015.6
20180718012856 78 239 0.0 5.0 0.00 0.14 0.14 91 1015.7
20180718012356 78 215 0.0 5.0 0.00 0.14 0.14 91 1015.6
20180718011355 78 217 0.0 5.0 0.00 0.14 0.14 91 1015.5
20180718005855 78 215 1.0 5.0 0.00 0.14 0.14 91 1015.5
20180718004355 78 204 2.0 5.0 0.00 0.14 0.14 90 1015.3
20180718002855 79 209 2.0 5.0 0.00 0.14 0.14 90 1015.4
20180718001855 79 272 2.0 5.0 0.00 0.14 0.14 90 1015.3
20180718001355 78 177 2.0 3.0 0.00 0.14 0.14 90 1015.3
20180717235354 78 148 0.0 3.0 0.00 0.14 0.14 91 1015.2
20180717234855 78 148 0.0 3.0 0.00 0.14 0.14 91 1015.3
20180717234354 78 205 1.0 3.0 0.00 0.14 0.14 92 1015.3
20180717233854 78 189 0.0 3.0 0.00 0.14 0.14 92 1015.2
20180717233355 78 183 0.0 3.0 0.00 0.14 0.14 91 1015.4
20180717232854 78 214 1.0 3.0 0.00 0.14 0.14 91 1015.4
20180717231854 78 190 0.0 3.0 0.00 0.14 0.14 91 1015.4
20180717231354 78 174 0.0 3.0 0.00 0.14 0.14 91 1015.3
20180717230854 78 240 0.0 3.0 0.00 0.14 0.14 91 1015.3
20180717230354 78 240 1.0 3.0 0.00 0.14 0.14 91 1015.3
20180717224854 78 190 0.0 3.0 0.00 0.14 0.14 91 1015.5
20180717222354 78 223 1.0 3.0 0.00 0.14 0.14 92 1015.5
20180717221853 78 253 1.0 3.0 0.00 0.14 0.14 92 1015.5
20180717221354 78 305 0.0 3.0 0.00 0.14 0.14 92 1015.5
20180717220853 78 169 0.0 3.0 0.00 0.14 0.14 92 1015.4
20180717220353 78 223 0.0 3.0 0.00 0.14 0.14 92 1015.5
20180717215853 77 117 1.0 6.0 0.00 0.14 0.14 92 1015.5
20180717214853 77 237 2.0 6.0 0.00 0.14 0.14 92 1015.6
20180717213853 77 237 2.0 6.0 0.00 0.14 0.14 92 1015.7
20180717213353 77 241 2.0 6.0 0.00 0.14 0.14 92 1015.7
20180717212353 76 229 3.0 6.0 0.00 0.14 0.14 92 1015.9
20180717210853 76 264 0.0 3.0 0.00 0.14 0.14 92 1015.9
20180717210353 76 253 0.0 3.0 0.00 0.14 0.14 92 1015.9
20180717204853 76 254 0.0 3.0 0.06 0.14 0.14 93 1015.9
20180717202852 75 219 1.0 3.0 0.06 0.14 0.14 94 1016.1
20180717201352 75 219 0.0 3.0 0.06 0.14 0.14 94 1016.3
20180717200352 75 219 0.0 3.0 0.06 0.14 0.14 93 1016.4
20180717195852 75 219 0.0 4.0 0.07 0.13 0.14 93 1016.5
20180717195352 75 219 0.0 4.0 0.06 0.13 0.13 93 1016.6
20180717194852 75 219 0.0 4.0 0.06 0.13 0.13 93 1016.8
20180717194352 75 219 0.0 4.0 0.06 0.13 0.13 93 1016.9
20180717193852 75 218 2.0 4.0 0.05 0.12 0.12 93 1016.9
20180717193352 75 218 0.0 4.0 0.05 0.12 0.12 92 1017.0
20180717192852 75 218 0.0 4.0 0.04 0.11 0.11 92 1017.0
20180717190352 76 294 0.0 2.0 0.01 0.08 0.08 90 1017.1
20180717185851 76 251 0.0 8.0 0.01 0.08 0.08 89 1017.1
20180717185351 76 255 0.0 8.0 0.01 0.08 0.08 89 1017.1
20180717184851 76 252 1.0 8.0 0.00 0.07 0.07 88 1017.2
20180717183351 77 272 1.0 8.0 0.00 0.07 0.07 87 1017.1
20180717182351 76 236 1.0 8.0 0.00 0.07 0.07 87 1017.1
20180717175851 77 270 1.0 10.0 0.07 0.07 0.07 83 1017.4
20180717174851 78 271 2.0 10.0 0.07 0.07 0.07 82 1017.5
20180717174350 79 246 3.0 10.0 0.07 0.07 0.07 81 1017.3
20180717172850 80 288 1.0 10.0 0.07 0.07 0.07 82 1017.0
20180717172350 81 282 3.0 10.0 0.07 0.07 0.07 82 1017.1
20180717171850 81 108 1.0 10.0 0.07 0.07 0.07 82 1017.0
20180717171350 82 234 7.0 10.0 0.07 0.07 0.07 80 1016.7
20180717165850 86 0 2.0 8.0 0.07 0.06 0.07 73 1016.1
20180717165350 88 219 6.0 6.0 0.01 0.00 0.01 68 1016.2
20180717164850 90 204 2.0 6.0 0.00 0.00 0.00 62 1015.9
20180717163350 91 244 3.0 6.0 0.00 0.00 0.00 61 1016.0
20180717162850 91 68 1.0 5.0 0.00 0.00 0.00 63 1015.8
20180717162350 90 239 2.0 5.0 0.00 0.00 0.00 63 1015.9
20180717161350 89 176 1.0 5.0 0.00 0.00 0.00 65 1016.1
20180717155349 88 272 1.0 7.0 0.00 0.00 0.00 66 1016.6
20180717154849 89 221 2.0 7.0 0.00 0.00 0.00 65 1016.6
20180717154349 89 273 0.0 7.0 0.00 0.00 0.00 64 1016.6
20180717153849 89 98 1.0 7.0 0.00 0.00 0.00 65 1016.6
20180717153349 89 100 0.0 7.0 0.00 0.00 0.00 70 1016.7
20180717152349 88 209 3.0 7.0 0.00 0.00 0.00 69 1016.7
20180717151349 88 113 0.0 7.0 0.00 0.00 0.00 69 1016.7
20180717150849 88 156 0.0 7.0 0.00 0.00 0.00 70 1016.8
20180717145349 87 251 3.0 7.0 0.00 0.00 0.00 72 1017.0
20180717144848 87 160 0.0 7.0 0.00 0.00 0.00 72 1016.9
20180717144349 87 271 2.0 7.0 0.00 0.00 0.00 72 1017.1
20180717143848 88 148 2.0 7.0 0.00 0.00 0.00 72 1017.2
20180717142848 86 259 0.0 7.0 0.00 0.00 0.00 74 1017.1
20180717134848 85 249 0.0 3.0 0.00 0.01 0.00 77 1017.6
20180717134348 84 271 1.0 3.0 0.00 0.01 0.00 78 1017.6
20180717133848 84 230 2.0 3.0 0.00 0.01 0.00 79 1017.7
20180717132848 83 244 0.0 3.0 0.00 0.01 0.00 80 1017.6
20180717132348 82 246 0.0 3.0 0.00 0.01 0.00 82 1017.7
20180717131847 82 255 0.0 3.0 0.00 0.01 0.00 82 1017.6
20180717125848 81 146 0.0 3.0 0.00 0.01 0.00 84 1017.4
20180717124847 80 110 0.0 3.0 0.00 0.01 0.00 85 1017.4
20180717124348 80 225 2.0 3.0 0.00 0.01 0.00 85 1017.5
20180717123347 80 234 1.0 3.0 0.00 0.01 0.00 86 1017.4
20180717122848 80 284 0.0 3.0 0.00 0.01 0.00 86 1017.2
20180717121847 79 140 1.0 3.0 0.00 0.01 0.00 87 1017.2
20180717120847 79 140 0.0 3.0 0.00 0.01 0.00 88 1017.2
20180717120347 78 140 0.0 3.0 0.00 0.01 0.00 88 1017.0
20180717115847 78 125 0.0 3.0 0.00 0.01 0.00 89 1017.2
20180717115347 78 125 0.0 3.0 0.00 0.01 0.00 89 1017.1
20180717114847 78 125 0.0 3.0 0.00 0.01 0.00 90 1017.0
20180717114347 78 125 1.0 3.0 0.00 0.01 0.00 90 1016.9
20180717113347 77 236 2.0 3.0 0.00 0.01 0.00 91 1017.0
20180717112847 77 231 0.0 3.0 0.00 0.01 0.00 91 1017.0
20180717112346 77 222 1.0 3.0 0.00 0.01 0.00 91 1017.0
20180717111847 77 208 0.0 3.0 0.00 0.01 0.00 91 1016.9
20180717111346 76 147 0.0 2.0 0.00 0.01 0.00 92 1016.8
20180717110846 76 138 2.0 2.0 0.00 0.01 0.00 92 1016.7
20180717110346 76 194 2.0 2.0 0.00 0.01 0.00 92 1016.6
20180717105346 76 145 0.0 1.0 0.00 0.01 0.00 91 1016.6
20180717104846 76 145 0.0 1.0 0.00 0.01 0.00 91 1016.5
20180717104346 76 145 0.0 1.0 0.00 0.01 0.00 92 1016.5
20180717103346 76 145 0.0 1.0 0.00 0.01 0.00 91 1016.3
20180717102846 76 145 0.0 1.0 0.00 0.01 0.00 91 1016.4
20180717101845 76 145 0.0 1.0 0.00 0.01 0.00 91 1016.3
20180717101345 76 145 0.0 1.0 0.00 0.01 0.00 91 1016.3
20180717100346 76 145 0.0 0.0 0.00 0.01 0.00 90 1016.3
20180717095845 76 145 0.0 2.0 0.00 0.01 0.00 90 1016.3
20180717095345 76 145 0.0 2.0 0.00 0.01 0.00 90 1016.3
20180717094345 76 145 1.0 1.0 0.00 0.01 0.00 90 1016.1
20180717093345 76 137 0.0 1.0 0.00 0.01 0.00 89 1016.3
20180717091345 77 137 1.0 1.0 0.00 0.01 0.00 88 1016.2
20180717090845 77 137 0.0 0.0 0.00 0.01 0.00 88 1016.3
20180717090345 77 137 0.0 0.0 0.00 0.01 0.00 88 1016.2
20180717085845 77 137 0.0 2.0 0.00 0.01 0.00 88 1016.1
20180717085345 77 137 0.0 2.0 0.00 0.01 0.00 87 1016.1
20180717084845 77 137 0.0 2.0 0.00 0.01 0.00 88 1016.3
20180717084345 77 137 1.0 2.0 0.00 0.01 0.00 87 1016.3
20180717083845 77 137 0.0 2.0 0.00 0.01 0.00 87 1016.4
20180717083345 77 137 0.0 2.0 0.00 0.01 0.00 87 1016.3
20180717082344 77 137 2.0 2.0 0.00 0.01 0.00 88 1016.3
20180717081844 77 137 0.0 2.0 0.00 0.01 0.00 87 1016.3
20180717081344 77 137 0.0 2.0 0.00 0.01 0.00 87 1016.3
20180717080344 77 138 0.0 1.0 0.00 0.01 0.00 87 1016.3
20180717074344 77 138 0.0 2.0 0.00 0.01 0.00 88 1016.3
20180717073844 77 138 0.0 1.0 0.00 0.01 0.00 87 1016.3
20180717072844 77 138 0.0 1.0 0.00 0.01 0.00 87 1016.4
20180717072344 77 138 0.0 1.0 0.00 0.01 0.00 87 1016.5
20180717071844 77 138 0.0 1.0 0.00 0.01 0.00 87 1016.5
20180717071344 77 137 0.0 1.0 0.00 0.01 0.00 87 1016.6
20180717070843 77 138 0.0 0.0 0.00 0.01 0.00 86 1016.5
20180717065844 77 137 0.0 2.0 0.00 0.01 0.00 85 1016.7
20180717065343 77 137 0.0 2.0 0.00 0.01 0.00 85 1016.6
20180717063843 78 137 0.0 2.0 0.00 0.01 0.00 83 1016.7
20180717063343 78 138 0.0 2.0 0.00 0.01 0.00 83 1016.7
20180717062843 78 137 0.0 2.0 0.00 0.01 0.00 83 1016.7
20180717062343 78 138 0.0 2.0 0.00 0.01 0.00 83 1016.6
20180717061843 78 137 0.0 2.0 0.00 0.01 0.00 82 1016.7